Terug naar catalogus

THORAD DELTA 1 DEB

ActiefLEO
NORAD 8151·DEBRIS·🇺🇸 United States

Gelanceerd Nov 15, 1974 vanaf Vandenberg Space Force Base

Loading…

Volgende Passages (komende 24 uur)

TLE

VersSource: Space-Track

Epoch: Sep 14, 2026, 03:43 UTC

1 08151U 74089R   26257.15522170  .00000215  00000-0  89981-3 0  9994
2 08151 101.7925  17.6941 0336822 225.2323 261.9204 12.81363077420180

Volg THORAD DELTA 1 DEB in realtime met AllMySat

Download on the App Store